Location: *
(90.0000°N, 180.0000°W)
Time: 12:15:17
(UTC+00:00)

Daily predictions for brighter satellites

Satellite Brightness Start Highest point End
(mag) Time Altitude Azimuth Time Altitude Azimuth Time Altitude Azimuth
ALOS 2 3.7 12:05:02 30° WSW 12:05:36 31° W 12:09:33 10° NNW
Okean O Rocket 3.5 12:04:04 10° W 12:07:58 30° NNW 12:11:51 10° NE
Cosmos 1733 Rocket 4.4 12:04:50 10° N 12:08:42 32° WNW 12:10:16 24° W
IDEFIX/ARIANE 42P 3.8 12:05:58 10° N 12:10:43 34° ENE 12:13:43 19° ESE
Okean 1-7 4.1 12:12:04 31° ESE 12:12:04 31° ESE 12:15:32 10° ENE
Cosmos 1238 Rocket 4.2 12:06:11 10° NW 12:11:47 42° WSW 12:12:44 39° SW
Helios 1A Rocket 4.4 12:11:08 24° W 12:12:04 27° WNW 12:15:31 10° N
Cosmos 1605 Rocket 4.3 12:13:51 43° S 12:14:54 47° SSE 12:20:55 10° E
SJ 16-02 4.4 12:14:06 10° N 12:15:51 12° NNW 12:17:36 10° NW
Cosmos 1707 4.2 12:17:56 25° E 12:17:56 25° E 12:20:26 10° ENE
Cosmos 2082 Rocket 4.4 12:16:03 10° W 12:16:52 11° WSW 12:16:52 11° WSW
Cosmos 1271 Rocket 4.4 12:19:01 10° NNW 12:21:59 22° W 12:21:59 22° W
CZ-2C R/B 2.5 12:19:32 10° N 12:25:05 60° W 12:25:14 59° W
Cosmos 1745 Rocket 4.3 12:19:17 10° WNW 12:25:09 46° SW 12:26:07 42° SSW
YAOGAN 1 4.4 12:22:42 10° WNW 12:26:35 31° NNW 12:30:28 10° NE
Meteor 2-10 Rocket 4.5 12:25:08 10° NNW 12:29:35 32° W 12:30:27 30° WSW
Cosmos 1975 Rocket 4.2 12:28:55 29° ESE 12:29:50 32° E 12:33:45 10° NNE
CZ-2C R/B 3.9 12:26:10 10° NNW 12:30:21 32° NE 12:34:39 10° ESE
USA 186 4.0 12:29:24 15° WNW 12:31:10 24° NNW 12:33:50 10° NNE
Cosmos 2341 Rocket 4.2 12:27:39 10° W 12:33:36 46° SSW 12:39:30 10° SE
Helios 1B rocket 4.4 12:32:40 10° NNW 12:36:14 27° NE 12:39:46 10° ESE
Cosmos 2100 Rocket 4.3 12:35:29 42° S 12:36:34 46° SSE 12:42:34 10° E
Cosmos 1726 3.7 12:34:52 10° N 12:37:52 25° NW 12:38:34 23° WNW
Cosmos 2074 Rocket 4.2 12:32:15 10° WNW 12:38:11 46° SSW 12:38:58 44° SSW
Cosmos 2061 Rocket 4.4 12:38:19 41° S 12:39:40 47° SE 12:45:45 10° ENE
Aureole 3 Rocket 4.2 12:41:40 21° E 12:41:40 21° E 12:43:47 10° NE
ARIANE 5 R/B 4.1 12:37:11 10° NNW 12:41:51 33° NE 12:46:33 10° ESE
Okean 2 Rocket 4.1 12:38:03 10° NNW 12:41:59 32° W 12:42:22 32° W
Cosmos 1953 3.6 12:39:12 10° NNW 12:42:43 29° W 12:42:44 29° W
Resurs 1-4 Rocket 3.3 12:38:15 10° NNE 12:43:08 34° E 12:45:51 22° SE
IRIDIUM 104 4.5 12:41:57 10° NNW 12:47:07 60° W 12:48:09 50° SW
Meteor 2-4 Rocket 4.4 12:49:39 36° SSE 12:49:39 36° SSE 12:54:43 10° E
Cosmos 2228 Rocket 4.3 12:51:40 29° SE 12:51:40 29° SE 12:54:42 10° E
Cosmos 1709 Rocket 4.3 12:46:36 10° WNW 12:52:32 46° SW 12:53:32 43° SSW
Cosmos 2278 Rocket 4.3 12:52:31 11° SE 12:53:03 11° ESE 12:54:42 10° ESE
CZ-2C R/B 3.6 12:55:17 29° WSW 12:55:17 29° WSW 12:58:26 10° WNW
CZ-2C R/B 4.5 12:49:43 10° NNW 12:54:02 33° NE 12:58:24 10° ESE
ADEOS II 3.4 12:49:37 10° NNE 12:54:26 34° ENE 12:57:35 19° SE
IRIDIUM 114 4.5 12:51:05 10° NNW 12:56:14 60° W 12:57:17 49° SW
Cosmos 1626 3.8 12:57:31 23° ESE 12:57:31 23° ESE 12:59:36 10° ENE
Cosmos 1892 4.4 12:55:26 22° ESE 12:56:41 27° ENE 12:59:55 10° NNE
Cosmos 2034 Rocket 4.5 12:55:12 37° SSE 12:56:52 45° ESE 13:02:42 10° NE
Cosmos 1725 Rocket 4.3 12:55:49 42° S 12:56:53 46° SSE 13:02:45 10° E
H-2A R/B 4.3 12:54:16 15° W 12:57:17 30° NNW 13:01:14 10° NNE
ARIANE 5 R/B 4.0 12:56:28 25° W 12:57:50 30° NW 13:01:47 10° N
CZ-2D R/B 3.4 12:53:21 10° NNE 12:58:10 34° E 13:00:54 21° SE
Okean 1 Rocket 4.1 12:55:20 10° NNW 12:59:13 32° W 12:59:17 32° W
Cosmos 1470 4.2 12:57:09 10° N 13:00:35 28° WNW 13:01:11 27° WNW
Cosmos 1408 4.3 12:59:53 23° ESE 13:00:43 26° E 13:03:45 10° NNE
Cosmos 1025 Rocket 4.2 13:00:17 29° ESE 13:01:10 32° E 13:05:03 10° NE
Ariane Rocket 4.4 12:58:09 16° W 13:01:29 33° NW 13:06:04 10° NNE
Cosmos 2016 Rocket 4.3 13:02:17 42° S 13:03:15 45° SSE 13:09:04 10° E
IRIDIUM 103 4.5 13:00:11 10° NNW 13:05:21 60° W 13:06:24 50° SW
Cosmos 2154 Rocket 4.2 12:59:50 10° WNW 13:05:42 45° SW 13:06:22 44° SSW
Cosmos 1633 4.5 13:04:27 20° ESE 13:05:46 25° ENE 13:08:41 10° NNE
Resurs 01 Rocket 3.2 13:02:54 15° W 13:05:58 31° NNW 13:09:56 10° NE
Cosmos 2184 Rocket 4.2 13:00:41 10° WNW 13:06:33 46° SW 13:07:18 44° SSW
Cosmos 1802 Rocket 4.3 13:05:58 42° S 13:07:07 46° SSE 13:13:08 10° E
Cosmos 1674 4.3 13:08:06 24° ESE 13:08:06 24° ESE 13:10:24 10° ENE
Cosmos 2228 4.3 13:04:15 10° NW 13:07:04 28° W 13:07:04 28° W
Cosmos 1300 4.1 13:06:14 10° NNW 13:09:11 27° WNW 13:09:11 27° WNW
SL-8 Rocket 4.1 13:04:28 10° W 13:10:20 46° SSW 13:16:10 10° SE
Cosmos 1464 Rocket 4.5 13:10:34 38° S 13:12:16 47° SE 13:18:20 10° ENE
Cosmos 2233 Rocket 4.3 13:11:29 41° S 13:12:39 46° SSE 13:18:31 10° ENE
Terra 3.2 13:10:54 23° W 13:13:02 33° NW 13:17:20 10° NNE
ASTEX 1 3.3 13:13:30 56° S 13:14:17 65° SW 13:19:12 10° NW
SPOT 5 4.3 13:12:29 20° W 13:15:22 35° NW 13:20:14 10° NNE
Cosmos 1943 Rocket 4.4 13:14:36 10° SE 13:15:57 11° ESE 13:17:18 10° E
ERS-1 Rocket 4.3 13:14:31 21° W 13:17:07 34° NW 13:21:42 10° NNE
GP-B 3.0 13:20:51 67° S 13:21:27 88° ESE 13:25:56 10° NNE
Cosmos 1821 Rocket 4.1 13:21:21 44° SSW 13:21:55 45° SSW 13:27:42 10° SE
Cosmos 2366 rocket 4.2 13:17:04 10° W 13:23:05 46° SSW 13:29:08 10° SE
IRIDIUM 106 4.5 13:18:30 10° N 13:23:40 60° W 13:24:43 50° SW
SL-16 R/B 3.1 13:25:43 36° WSW 13:26:17 36° WSW 13:32:00 10° NW
ERS-2 3.9 13:25:16 10° NE 13:28:10 22° E 13:28:41 22° ESE
Cosmos 1934 Rocket 4.2 13:28:18 44° SSW 13:28:55 46° S 13:34:49 10° ESE
MOS 1 Rocket 4.1 13:28:54 35° W 13:28:58 35° W 13:33:11 10° NNW
H-2A R/B 3.5 13:26:19 10° E 13:28:58 25° SE 13:28:58 25° SE
CZ-4 R/B 3.3 13:26:50 10° WNW 13:30:16 28° N 13:33:46 10° ENE
Cosmos 1455 3.8 13:27:24 10° NNW 13:29:45 24° WNW 13:29:45 24° WNW
Cosmos 1825 4.0 13:29:23 21° ESE 13:30:47 26° ENE 13:33:56 10° NNE
Okean-O 4.4 13:27:07 10° WNW 13:31:05 30° NNW 13:35:03 10° NE
ALOS 3.8 13:29:25 10° N 13:33:40 33° ENE 13:37:30 12° SE
Cosmos 1455 Rocket 4.1 13:30:05 10° NNW 13:33:42 32° W 13:33:42 32° W
Cosmos 1459 Rocket 4.2 13:35:58 43° S 13:36:46 45° SSE 13:42:32 10° E
Cosmos 2218 Rocket 4.2 13:30:50 10° W 13:36:54 46° SSW 13:42:56 10° SE
Cosmos 1655 Rocket 4.5 13:33:17 10° NNW 13:39:16 46° W 13:40:52 39° SW
H-2A R/B 3.6 13:35:28 10° NNW 13:40:01 34° NNE 13:44:31 10° E
ADEOS Rocket 4.2 13:37:32 24° WSW 13:41:57 46° NW 13:49:04 10° NNE
ALOS 2 3.7 13:42:26 30° W 13:43:00 31° WNW 13:46:56 10° N
Cosmos 2173 Rocket 4.3 13:43:59 42° SSW 13:45:08 47° SSE 13:51:10 10° E
Okean O Rocket 3.5 13:41:30 10° WNW 13:45:23 30° N 13:49:16 10° ENE
Cosmos 1733 Rocket 4.4 13:41:54 10° NNE 13:45:45 32° NW 13:47:19 24° WNW
Helios 1A Rocket 4.4 13:47:12 24° WNW 13:48:08 27° NW 13:51:35 10° NNE
Okean 1-7 4.1 13:48:52 31° SE 13:48:52 31° SE 13:52:19 10° E
Cosmos 2266 Rocket 4.4 13:44:10 10° NNW 13:49:55 45° W 13:51:21 39° WSW
Cosmos 1238 Rocket 4.2 13:44:30 10° NNW 13:50:06 42° W 13:51:04 39° WSW
IDEFIX/ARIANE 42P 3.8 13:46:46 10° NNE 13:51:31 34° E 13:54:31 19° SE
Cosmos 1707 4.2 13:52:55 25° ESE 13:52:55 25° ESE 13:55:24 10° E
SJ 16-02 4.4 13:50:59 10° NNE 13:52:45 12° N 13:54:30 10° NNW
Cosmos 1271 Rocket 4.4 13:54:00 10° N 13:56:58 22° WNW 13:56:58 22° WNW
Cosmos 1605 Rocket 4.3 13:58:31 43° SSW 13:59:33 47° S 14:05:34 10° ESE
Cosmos 2082 Rocket 4.4 13:57:52 10° WNW 13:58:43 11° W 13:58:43 11° W
YAOGAN 1 4.4 13:59:49 10° NW 14:03:42 31° N 14:07:35 10° ENE
USA 186 4.0 14:02:28 15° NW 14:04:15 24° N 14:06:55 10° ENE
Cosmos 1975 Rocket 4.2 14:06:03 29° SE 14:06:57 32° ESE 14:10:53 10° NE
CZ-2C R/B 3.9 14:05:31 10° NNE 14:09:43 32° ENE 14:14:01 10° SE
Cosmos 1745 Rocket 4.3 14:03:57 10° NNW 14:09:48 46° WSW 14:10:46 42° SW
Meteor 2-10 Rocket 4.5 14:06:15 10° N 14:10:42 32° WNW 14:11:34 30° W
Cosmos 1726 3.7 14:08:58 10° NNE 14:11:57 25° NNW 14:12:41 23° NW
Helios 1B rocket 4.4 14:08:48 10° N 14:12:21 27° ENE 14:15:54 10° SE
Cosmos 1953 3.6 14:14:44 10° N 14:18:16 29° WNW 14:18:17 29° WNW
Cosmos 2341 Rocket 4.2 14:12:32 10° WNW 14:18:29 46° SW 14:24:23 10° SSE
Okean 2 Rocket 4.1 14:15:24 10° N 14:19:19 32° WNW 14:19:42 32° WNW
Cosmos 2100 Rocket 4.3 14:20:11 42° SSW 14:21:17 46° S 14:27:16 10° ESE
ARIANE 5 R/B 4.1 14:17:31 10° N 14:22:11 33° ENE 14:26:53 10° SE
Cosmos 2074 Rocket 4.2 14:16:56 10° NW 14:22:51 46° WSW 14:23:38 44° SW
Resurs 1-4 Rocket 3.3 14:19:19 10° NE 14:24:12 34° ESE 14:26:55 22° SSE
Cosmos 2061 Rocket 4.4 14:23:17 41° SSW 14:24:37 47° S 14:30:42 10° E
IRIDIUM 104 4.5 14:22:25 10° N 14:27:35 60° WNW 14:28:37 50° WSW
Aureole 3 Rocket 4.2 14:28:14 21° ESE 14:28:14 21° ESE 14:30:21 10° ENE
Cosmos 2228 Rocket 4.3 14:29:09 29° SSE 14:29:09 29° SSE 14:32:10 10° ESE
Cosmos 1626 3.8 14:31:43 23° SE 14:31:43 23° SE 14:33:49 10° E
Cosmos 1892 4.4 14:30:12 22° SE 14:31:26 27° E 14:34:39 10° NE
Meteor 2-4 Rocket 4.4 14:31:43 36° S 14:31:43 36° S 14:36:46 10° ESE
H-2A R/B 4.3 14:30:42 15° WNW 14:33:43 30° N 14:37:40 10° NE
Cosmos 1408 4.3 14:33:44 23° SE 14:34:34 26° ESE 14:37:35 10° NE
Cosmos 2278 Rocket 4.3 14:34:21 11° SSE 14:34:52 11° SSE 14:36:31 10° SE
CZ-2C R/B 3.6 14:36:47 29° W 14:36:47 29° W 14:39:56 10° NW
CZ-2C R/B 4.5 14:30:46 10° N 14:35:05 33° ENE 14:39:27 10° SE
ADEOS II 3.4 14:30:32 10° NE 14:35:21 34° ESE 14:38:30 19° SSE
ARIANE 5 R/B 4.0 14:34:00 25° WNW 14:35:22 30° NNW 14:39:18 10° NNE
Cosmos 1470 4.2 14:32:21 10° NNE 14:35:46 28° NW 14:36:23 27° NW
Okean 1 Rocket 4.1 14:32:30 10° N 14:36:23 32° WNW 14:36:26 32° WNW
IRIDIUM 114 4.5 14:31:32 10° NNE 14:36:42 60° WNW 14:37:44 50° WSW
Cosmos 1709 Rocket 4.3 14:31:14 10° NNW 14:37:11 46° WSW 14:38:11 43° SW
Cosmos 1025 Rocket 4.2 14:37:09 29° SSE 14:38:02 32° ESE 14:41:54 10° ENE
Cosmos 1633 4.5 14:38:02 20° SE 14:39:20 25° E 14:42:15 10° NE
CZ-2D R/B 3.4 14:34:40 10° NE 14:39:28 34° ESE 14:42:12 21° SSE
Cosmos 1725 Rocket 4.3 14:40:30 42° SSW 14:41:33 46° S 14:47:25 10° ESE
Cosmos 2034 Rocket 4.5 14:39:56 37° S 14:41:36 45° SSE 14:47:26 10° E
Ariane Rocket 4.4 14:38:20 17° WNW 14:41:40 33° NNW 14:46:15 10° NE
Cosmos 1674 4.3 14:42:39 24° SE 14:42:39 24° SE 14:44:58 10° E
Resurs 01 Rocket 3.2 14:40:27 15° WNW 14:43:30 31° N 14:47:29 10° ENE
Cosmos 1300 4.1 14:40:59 10° N 14:43:57 27° NW 14:43:57 27° NW
Cosmos 2228 4.3 14:41:01 10° NNW 14:43:50 28° WNW 14:43:50 28° WNW
IRIDIUM 103 4.5 14:40:39 10° NNE 14:45:49 60° WNW 14:46:52 50° WSW
Cosmos 2016 Rocket 4.3 14:46:54 42° SSW 14:47:51 45° S 14:53:40 10° ESE
Cosmos 2154 Rocket 4.2 14:44:36 10° NW 14:50:28 45° WSW 14:51:08 44° SW
Cosmos 2184 Rocket 4.2 14:45:26 10° NW 14:51:18 46° WSW 14:52:04 44° SW
Terra 3.2 14:49:39 23° WNW 14:51:47 33° NNW 14:56:05 10° NE
Cosmos 1802 Rocket 4.3 14:50:48 42° SSW 14:51:55 46° S 14:57:57 10° ESE
ASTEX 1 3.3 14:53:00 56° SSW 14:53:46 65° W 14:58:40 10° NNW
SPOT 5 4.3 14:51:42 20° WNW 14:54:34 35° NNW 14:59:26 10° NE
SL-8 Rocket 4.1 14:49:05 10° WNW 14:54:57 46° SW 15:00:47 10° SSE
Cosmos 1464 Rocket 4.5 14:55:15 38° SSW 14:56:57 47° SSE 15:03:01 10° E
ERS-1 Rocket 4.3 14:54:29 21° WNW 14:57:06 34° NNW 15:01:41 10° NE
Cosmos 2233 Rocket 4.3 14:56:03 41° SSW 14:57:13 46° S 15:03:05 10° ESE
Cosmos 1943 Rocket 4.4 14:56:05 10° SSE 14:57:27 11° SE 14:58:48 10° SE
GP-B 3.0 14:58:15 67° SW 14:58:52 88° SE 15:03:21 10° NE
ERS-2 3.9 14:59:29 10° ENE 15:02:22 22° ESE 15:02:54 22° SE
IRIDIUM 106 4.5 14:58:58 10° NNE 15:04:08 60° WNW 15:05:10 50° WSW
Cosmos 1455 3.8 15:02:03 10° N 15:04:24 24° NW 15:04:24 24° NW
Cosmos 1825 4.0 15:03:54 21° SE 15:05:18 26° ESE 15:08:27 10° NE
CZ-4 R/B 3.3 15:02:44 10° NW 15:06:11 28° NNE 15:09:40 10° E
Cosmos 1821 Rocket 4.1 15:06:01 44° SW 15:06:33 45° SW 15:12:20 10° SSE
H-2A R/B 3.5 15:03:20 10° SE 15:05:59 25° SSE 15:05:59 25° SSE
Cosmos 2366 rocket 4.2 15:01:44 10° WNW 15:07:45 46° SW 15:13:47 10° SSE
MOS 1 Rocket 4.1 15:08:10 35° WNW 15:08:14 35° WNW 15:12:27 10° N
Okean-O 4.4 15:04:40 10° NW 15:08:38 30° N 15:12:36 10° ENE
Cosmos 1455 Rocket 4.1 15:07:10 10° N 15:10:47 32° NW 15:10:47 32° NW
SL-16 R/B 3.1 15:10:48 36° W 15:11:22 36° W 15:17:05 10° NNW
ALOS 3.8 15:07:53 10° NNE 15:12:07 33° E 15:15:57 12° SSE
Cosmos 1934 Rocket 4.2 15:12:49 44° SW 15:13:26 46° SSW 15:19:19 10° SE
ALOS 2 3.7 15:19:50 30° NW 15:20:23 31° NW 15:24:20 10° NNE
H-2A R/B 3.6 15:16:05 10° N 15:20:38 34° ENE 15:25:08 10° ESE
Cosmos 1459 Rocket 4.2 15:20:28 43° SSW 15:21:16 45° SSW 15:27:01 10° ESE
Cosmos 2218 Rocket 4.2 15:15:36 10° NW 15:21:41 46° SW 15:27:42 10° SSE
Cosmos 1733 Rocket 4.4 15:18:57 10° NE 15:22:48 32° N 15:24:24 24° NW
Okean O Rocket 3.5 15:18:55 10° NW 15:22:48 30° NNE 15:26:41 10° E
Cosmos 1655 Rocket 4.5 15:18:12 10° N 15:24:12 46° WNW 15:25:47 39° W
Helios 1A Rocket 4.4 15:23:17 24° NW 15:24:12 27° NNW 15:27:39 10° NE
Okean 1-7 4.1 15:25:39 31° SSE 15:25:39 31° SSE 15:29:06 10° ESE
Cosmos 1707 4.2 15:27:53 25° SSE 15:27:53 25° SSE 15:30:21 10° ESE
Cosmos 1238 Rocket 4.2 15:22:50 10° NNE 15:28:25 42° NW 15:29:23 39° W
ADEOS Rocket 4.2 15:24:29 24° W 15:28:54 46° NNW 15:36:00 10° NE
SJ 16-02 4.4 15:27:54 10° NE 15:29:39 12° NNE 15:31:24 10° N
Cosmos 2173 Rocket 4.3 15:28:34 42° SW 15:29:43 47° SSW 15:35:46 10° SE
Cosmos 1271 Rocket 4.4 15:28:58 10° NNE 15:31:57 22° NNW 15:31:57 22° NNW
IDEFIX/ARIANE 42P 3.8 15:27:33 10° NE 15:32:18 34° ESE 15:35:18 19° S
Cosmos 2266 Rocket 4.4 15:28:44 10° NNE 15:34:29 45° WNW 15:35:55 39° W
USA 186 4.0 15:35:34 15° NNW 15:37:21 24° NNE 15:40:00 10° E
YAOGAN 1 4.4 15:36:56 10° NNW 15:40:49 31° NE 15:44:42 10° E
Cosmos 2082 Rocket 4.4 15:39:40 10° NW 15:40:33 11° NW 15:40:33 11° NW
Cosmos 1975 Rocket 4.2 15:43:10 29° SSE 15:44:04 32° SE 15:47:59 10° ENE
Cosmos 1605 Rocket 4.3 15:43:10 43° WSW 15:44:12 47° SSW 15:50:13 10° SE
Cosmos 1726 3.7 15:43:04 10° NE 15:46:04 25° N 15:46:47 23° NNW
Helios 1B rocket 4.4 15:44:56 10° NNE 15:48:29 27° E 15:52:02 10° SSE
CZ-2C R/B 3.9 15:44:53 10° NE 15:49:05 32° E 15:53:23 10° SSE
Meteor 2-10 Rocket 4.5 15:47:22 10° NNE 15:51:50 32° NW 15:52:42 30° WNW
Cosmos 1953 3.6 15:50:17 10° NNE 15:53:48 29° NW 15:53:49 29° NW
Cosmos 1745 Rocket 4.3 15:48:36 10° N 15:54:27 46° WNW 15:55:26 42° WSW
Okean 2 Rocket 4.1 15:52:44 10° NNE 15:56:40 32° NW 15:57:03 32° NW
ARIANE 5 R/B 4.1 15:57:50 10° NNE 16:02:30 33° E 16:07:13 10° SSE
Cosmos 2341 Rocket 4.2 15:57:25 10° NW 16:03:21 46° WSW 16:09:16 10° S
Cosmos 1626 3.8 16:05:56 23° SSE 16:05:56 23° SSE 16:08:01 10° ESE
Resurs 1-4 Rocket 3.3 16:00:24 10° ENE 16:05:16 34° SE 16:07:59 22° S
Cosmos 2228 Rocket 4.3 16:06:37 29° S 16:06:37 29° S 16:09:38 10° SE
Cosmos 2100 Rocket 4.3 16:04:55 42° SW 16:06:00 46° SSW 16:11:59 10° SE
Cosmos 1892 4.4 16:04:57 22° SSE 16:06:10 27° ESE 16:09:24 10° ENE
Cosmos 2074 Rocket 4.2 16:01:37 10° NNW 16:07:32 46° W 16:08:17 44° WSW
IRIDIUM 104 4.5 16:02:53 10° NE 16:08:03 60° NW 16:09:05 50° W
Cosmos 1408 4.3 16:07:34 23° SSE 16:08:24 26° SE 16:11:25 10° ENE
Cosmos 2061 Rocket 4.4 16:08:14 41° SW 16:09:34 47° SSW 16:15:38 10° SE
H-2A R/B 4.3 16:07:07 15° NW 16:10:08 30° NNE 16:14:05 10° ENE
Cosmos 1470 4.2 16:07:32 10° NE 16:10:58 28° NNW 16:11:34 27° NNW
Cosmos 1633 4.4 16:11:37 20° SSE 16:12:54 25° ESE 16:15:49 10° ENE
ARIANE 5 R/B 4.0 16:11:32 25° NW 16:12:54 30° N 16:16:50 10° NE
Okean 1 Rocket 4.1 16:09:39 10° NNE 16:13:32 32° NW 16:13:36 32° NW
Meteor 2-4 Rocket 4.4 16:13:48 36° SSW 16:13:48 36° SSW 16:18:50 10° SE
Aureole 3 Rocket 4.2 16:14:48 21° SE 16:14:48 21° SE 16:16:55 10° E
Cosmos 1025 Rocket 4.2 16:14:00 29° S 16:14:53 32° SSE 16:18:46 10° E
CZ-2C R/B 4.5 16:11:48 10° NNE 16:16:08 33° E 16:20:30 10° SSE
ADEOS II 3.4 16:11:27 10° ENE 16:16:16 34° SE 16:19:25 19° S
Cosmos 1674 4.3 16:17:13 24° SSE 16:17:13 24° SSE 16:19:31 10° ESE
CZ-2C R/B 3.7 16:18:18 29° NW 16:18:18 29° NW 16:21:26 10° NNW
Cosmos 2278 Rocket 4.3 16:16:11 11° S 16:16:41 11° S 16:18:20 10° SSE
IRIDIUM 114 4.5 16:12:00 10° NE 16:17:10 60° NW 16:18:12 50° W
Cosmos 1300 4.1 16:15:45 10° NNE 16:18:42 27° NNW 16:18:42 27° NNW
CZ-2D R/B 3.4 16:15:59 10° ENE 16:20:47 34° SE 16:23:31 21° S
Resurs 01 Rocket 3.2 16:18:00 15° NW 16:21:03 31° NNE 16:25:02 10° E
Cosmos 2228 4.3 16:17:46 10° N 16:20:36 28° NW 16:20:36 28° NW
Cosmos 1709 Rocket 4.3 16:15:53 10° N 16:21:49 46° WNW 16:22:49 43° WSW
Ariane Rocket 4.4 16:18:31 17° NW 16:21:51 33° NNE 16:26:26 10° ENE
Cosmos 1725 Rocket 4.3 16:25:11 42° SW 16:26:13 46° SSW 16:32:05 10° SE
IRIDIUM 103 4.5 16:21:08 10° NE 16:26:17 60° NW 16:27:20 50° W
Cosmos 2034 Rocket 4.5 16:24:41 37° SW 16:26:20 45° S 16:32:10 10° ESE
Terra 3.2 16:28:25 23° NW 16:30:33 33° N 16:34:51 10° ENE
Cosmos 2016 Rocket 4.3 16:31:30 42° SW 16:32:28 45° SSW 16:38:17 10° SE
ASTEX 1 3.3 16:32:29 56° WSW 16:33:15 65° WNW 16:38:09 10° N
SPOT 5 4.3 16:30:54 20° NW 16:33:47 35° N 16:38:39 10° ENE
Cosmos 2154 Rocket 4.2 16:29:23 10° NNW 16:35:15 45° W 16:35:54 44° WSW
Cosmos 2184 Rocket 4.2 16:30:12 10° NNW 16:36:04 46° W 16:36:49 44° WSW
GP-B 3.0 16:35:40 67° WSW 16:36:17 88° SSE 16:40:45 10° ENE
ERS-2 3.9 16:33:43 10° E 16:36:36 22° SE 16:37:07 22° SSE
Cosmos 1802 Rocket 4.3 16:35:37 42° SW 16:36:44 46° SSW 16:42:46 10° SE
ERS-1 Rocket 4.3 16:34:28 21° NW 16:37:04 34° N 16:41:40 10° ENE
Cosmos 1943 Rocket 4.4 16:37:35 10° S 16:38:56 11° SSE 16:40:18 10° SSE
SL-8 Rocket 4.1 16:33:42 10° NW 16:39:34 46° WSW 16:45:24 10° S
Cosmos 1825 4.0 16:38:26 21° SSE 16:39:50 26° SE 16:42:58 10° ENE
Cosmos 1455 3.8 16:36:43 10° NNE 16:39:04 24° NNW 16:39:04 24° NNW
Cosmos 1464 Rocket 4.5 16:39:57 38° SW 16:41:38 47° S 16:47:42 10° ESE
Cosmos 2233 Rocket 4.3 16:40:38 41° SW 16:41:48 46° SSW 16:47:40 10° SE
CZ-4 R/B 3.3 16:38:39 10° NNW 16:42:05 28° NE 16:45:35 10° ESE
H-2A R/B 3.5 16:40:21 10° SSE 16:43:00 25° S 16:43:00 25° S
IRIDIUM 106 4.5 16:39:26 10° NE 16:44:36 60° NW 16:45:38 50° W
Okean-O 4.4 16:42:13 10° NNW 16:46:10 30° NE 16:50:09 10° E
MOS 1 Rocket 4.1 16:47:27 35° NW 16:47:30 35° NW 16:51:43 10° NNE
Cosmos 1455 Rocket 4.1 16:44:16 10° NNE 16:47:53 32° NNW 16:47:53 32° NNW
ALOS 3.8 16:46:20 10° NE 16:50:34 33° ESE 16:54:24 12° S
Cosmos 1821 Rocket 4.1 16:50:40 44° W 16:51:12 45° WSW 16:56:58 10° S
Cosmos 2366 rocket 4.2 16:46:24 10° NNW 16:52:25 46° WSW 16:58:27 10° S
SL-16 R/B 3.1 16:55:54 36° WNW 16:56:28 36° WNW 17:02:11 10° N
ALOS 2 3.7 16:57:13 30° NNW 16:57:46 31° NNW 17:01:43 10° NE
Cosmos 1934 Rocket 4.2 16:57:19 44° WSW 16:57:56 46° WSW 17:03:49 10° SSE
Cosmos 1733 Rocket 4.4 16:56:01 10° ENE 16:59:52 32° NNE 17:01:27 24° NNW
Okean O Rocket 3.5 16:56:20 10° NNW 17:00:14 30° NE 17:04:07 10° ESE
Helios 1A Rocket 4.4 16:59:20 24° NNW 17:00:15 27° N 17:03:42 10° ENE
H-2A R/B 3.6 16:56:41 10° NNE 17:01:14 34° E 17:05:44 10° SSE
Okean 1-7 4.1 17:02:26 31° S 17:02:26 31° S 17:05:53 10° SE
Cosmos 1707 4.2 17:02:51 25° S 17:02:51 25° S 17:05:19 10° SE
Cosmos 1459 Rocket 4.2 17:04:59 43° WSW 17:05:46 45° SW 17:11:31 10° SSE
Cosmos 2218 Rocket 4.2 17:00:23 10° NNW 17:06:27 46° W 17:12:29 10° S
SJ 16-02 4.4 17:04:47 10° ENE 17:06:33 12° NE 17:08:18 10° NNE
Cosmos 1238 Rocket 4.2 17:01:10 10° NE 17:06:45 42° NNW 17:07:42 39° NW
Cosmos 1271 Rocket 4.4 17:03:57 10° NE 17:06:56 22° N 17:06:57 22° N
Cosmos 1655 Rocket 4.5 17:03:08 10° NE 17:09:07 46° NW 17:10:43 39° WNW
USA 186 4.0 17:08:40 15° N 17:10:26 24° NE 17:13:05 10° ESE
IDEFIX/ARIANE 42P 3.8 17:08:21 10° ENE 17:13:06 34° SE 17:16:05 19° SSW
Cosmos 2173 Rocket 4.3 17:13:10 42° WSW 17:14:18 47° SW 17:20:21 10° SSE
ADEOS Rocket 4.2 17:11:26 24° WNW 17:15:51 46° N 17:22:57 10° ENE
YAOGAN 1 4.4 17:14:03 10° N 17:17:56 31° ENE 17:21:49 10° ESE
Cosmos 2266 Rocket 4.4 17:13:18 10° NE 17:19:02 45° NNW 17:20:28 39° WNW
Cosmos 1726 3.7 17:17:10 10° ENE 17:20:10 25° NNE 17:20:54 23° N
Cosmos 1975 Rocket 4.2 17:20:18 29° S 17:21:11 32° SSE 17:25:07 10° ESE
Cosmos 2082 Rocket 4.4 17:21:30 10° NNW 17:22:23 11° NNW 17:22:23 11° NNW
Helios 1B rocket 4.4 17:21:04 10° ENE 17:24:37 27° ESE 17:28:10 10° S
CZ-2C R/B 3.9 17:24:14 10° ENE 17:28:27 32° SE 17:32:45 10° S
Cosmos 1605 Rocket 4.3 17:27:49 43° W 17:28:51 47° WSW 17:34:52 10° SSE
Cosmos 1953 3.6 17:25:50 10° NE 17:29:20 29° N 17:29:21 29° NNW
Meteor 2-10 Rocket 4.5 17:28:30 10° NE 17:32:57 32° NNW 17:33:50 30° NNW
Okean 2 Rocket 4.1 17:30:04 10° NE 17:33:59 32° N 17:34:23 32° NNW
Cosmos 1745 Rocket 4.3 17:33:15 10° NNE 17:39:05 46° NW 17:40:04 42° WNW
Cosmos 1626 3.8 17:40:09 23° S 17:40:09 23° S 17:42:14 10° SE
Cosmos 1892 4.4 17:39:42 22° S 17:40:55 27° SE 17:44:09 10° E
Cosmos 1408 4.3 17:41:25 23° S 17:42:15 26° SSE 17:45:16 10° E
ARIANE 5 R/B 4.1 17:38:10 10° NE 17:42:50 33° ESE 17:47:33 10° S
Cosmos 2228 Rocket 4.3 17:44:05 29° SSW 17:44:05 29° SSW 17:47:05 10° SSE
Cosmos 1470 4.2 17:42:43 10° ENE 17:46:08 28° NNE 17:46:46 27° N
Resurs 1-4 Rocket 3.3 17:41:27 10° E 17:46:21 34° SSE 17:49:03 22° SSW
Cosmos 1633 4.4 17:45:12 20° S 17:46:28 25° SE 17:49:23 10° E
H-2A R/B 4.3 17:43:34 15° NNW 17:46:34 30° NE 17:50:31 10° ESE
Cosmos 2341 Rocket 4.2 17:42:18 10° NNW 17:48:15 46° W 17:54:10 10° SSW
IRIDIUM 104 4.5 17:43:22 10° ENE 17:48:31 60° NNW 17:49:33 50° WNW
ARIANE 5 R/B 4.0 17:49:03 25° NNW 17:50:25 30° NNE 17:54:22 10° E
Okean 1 Rocket 4.1 17:46:49 10° NE 17:50:42 32° NNW 17:50:46 32° NNW
Cosmos 2100 Rocket 4.3 17:49:38 42° WSW 17:50:43 46° SW 17:56:42 10° SSE
Cosmos 1674 4.3 17:51:47 24° S 17:51:47 24° S 17:54:04 10° SE
Cosmos 1025 Rocket 4.2 17:50:52 29° SSW 17:51:44 32° S 17:55:38 10° ESE
Cosmos 2074 Rocket 4.2 17:46:18 10° N 17:52:13 46° WNW 17:52:58 44° W
Cosmos 1300 4.1 17:50:30 10° NE 17:53:28 27° N 17:53:28 27° N
Cosmos 2061 Rocket 4.4 17:53:11 41° WSW 17:54:30 47° SW 18:00:35 10° SSE
Meteor 2-4 Rocket 4.4 17:55:52 36° SW 17:55:52 36° SW 18:00:54 10° S
CZ-2C R/B 4.5 17:52:51 10° NE 17:57:11 33° ESE 18:01:32 10° S
ADEOS II 3.4 17:52:22 10° E 17:57:11 34° SSE 18:00:20 19° SSW
IRIDIUM 114 4.5 17:52:28 10° ENE 17:57:38 60° NNW 17:58:40 50° WNW
CZ-2C R/B 3.7 17:59:49 29° NNW 17:59:49 29° NNW 18:02:57 10° N
Cosmos 2228 4.3 17:54:32 10° NNE 17:57:21 28° NNW 17:57:21 28° NNW
Cosmos 2278 Rocket 4.3 17:58:02 11° SSW 17:58:30 11° SSW 18:00:09 10° S
Resurs 01 Rocket 3.2 17:55:33 15° N 17:58:36 31° NE 18:02:34 10° ESE
Aureole 3 Rocket 4.2 18:01:22 21° SSE 18:01:22 21° SSE 18:03:29 10° SE
Ariane Rocket 4.4 17:58:42 17° NNW 18:02:01 33° NE 18:06:37 10° ESE
CZ-2D R/B 3.4 17:57:17 10° E 18:02:06 34° SSE 18:04:49 21° SSW
Cosmos 1709 Rocket 4.3 18:00:31 10° NNE 18:06:28 46° NW 18:07:27 43° WNW
IRIDIUM 103 4.5 18:01:35 10° ENE 18:06:45 60° NNW 18:07:47 50° WNW
Terra 3.2 18:07:12 23° NNW 18:09:19 33° NNE 18:13:37 10° E
ERS-2 3.9 18:07:56 10° ESE 18:10:49 22° SSE 18:11:20 22° S
Cosmos 1725 Rocket 4.3 18:09:51 42° WSW 18:10:53 46° SW 18:16:46 10° SSE
Cosmos 2034 Rocket 4.5 18:09:25 37° WSW 18:11:04 45° SSW 18:16:54 10° SE
ASTEX 1 3.3 18:11:58 56° W 18:12:44 65° NW 18:17:38 10° NNE
SPOT 5 4.3 18:10:06 20° NNW 18:12:59 35° NE 18:17:51 10° ESE
GP-B 3.0 18:13:05 67° W 18:13:41 88° S 18:18:11 10° E
Cosmos 1825 4.0 18:12:58 21° S 18:14:21 26° SSE 18:17:30 10° E
Cosmos 1455 3.8 18:11:22 10° NE 18:13:43 24° N 18:13:43 24° N
ERS-1 Rocket 4.3 18:14:27 21° NNW 18:17:03 34° NNE 18:21:38 10° E
Cosmos 2016 Rocket 4.3 18:16:08 42° WSW 18:17:05 45° SW 18:22:55 10° SSE
CZ-4 R/B 3.3 18:14:33 10° N 18:18:00 28° ENE 18:21:29 10° SE
Cosmos 2154 Rocket 4.2 18:14:09 10° N 18:20:02 45° WNW 18:20:40 44° W
Cosmos 1943 Rocket 4.4 18:19:05 10° SSW 18:20:26 11° S 18:21:47 10° S
Cosmos 2184 Rocket 4.2 18:14:57 10° N 18:20:50 46° WNW 18:21:34 44° W
H-2A R/B 3.5 18:17:23 10° S 18:20:01 25° SSW 18:20:01 25° SSW
Cosmos 1802 Rocket 4.3 18:20:26 42° W 18:21:33 46° SW 18:27:34 10° SSE
Okean-O 4.4 18:19:45 10° N 18:23:43 30° ENE 18:27:42 10° ESE
SL-8 Rocket 4.1 18:18:19 10° N 18:24:11 46° WNW 18:30:01 10° SSW
IRIDIUM 106 4.5 18:19:54 10° ENE 18:25:04 60° N 18:26:06 50° NW
Cosmos 1455 Rocket 4.1 18:21:21 10° NE 18:24:58 32° N 18:24:58 32° N
Cosmos 1464 Rocket 4.5 18:24:38 38° WSW 18:26:19 47° SSW 18:32:23 10° SE
Cosmos 2233 Rocket 4.3 18:25:13 41° WSW 18:26:22 46° SW 18:32:14 10° SSE
MOS 1 Rocket 4.1 18:26:43 35° NNW 18:26:47 35° NNW 18:30:59 10° NE
ALOS 3.8 18:24:48 10° ENE 18:29:02 33° SE 18:32:51 12° SSW
ALOS 2 3.7 18:34:37 30° N 18:35:10 31° N 18:39:07 10° ENE
Cosmos 1821 Rocket 4.1 18:35:20 44° WNW 18:35:50 45° W 18:41:37 10° SSW
Helios 1A Rocket 4.4 18:35:25 24° N 18:36:19 27° NNE 18:39:46 10° E
Cosmos 1733 Rocket 4.5 18:33:04 10° E 18:36:55 32° NE 18:38:31 24° N
Cosmos 1707 4.3 18:37:49 25° SSW 18:37:49 25° SSW 18:40:16 10° SSE
Cosmos 2366 rocket 4.2 18:31:03 10° N 18:37:05 46° WNW 18:43:07 10° SSW
Okean O Rocket 3.5 18:33:46 10° NNE 18:37:39 30° ENE 18:41:32 10° SE
Okean 1-7 4.1 18:39:14 31° SSW 18:39:14 31° SSW 18:42:40 10° SSE
SL-16 R/B 3.1 18:41:00 36° NW 18:41:33 36° NNW 18:47:16 10° NE
H-2A R/B 3.6 18:37:17 10° NE 18:41:50 34° ESE 18:46:20 10° S
Cosmos 1271 Rocket 4.4 18:38:56 10° ENE 18:41:55 22° NNE 18:41:56 22° NNE
Cosmos 1934 Rocket 4.2 18:41:50 44° W 18:42:26 46° W 18:48:20 10° SSW
SJ 16-02 4.4 18:41:41 10° E 18:43:26 12° ENE 18:45:12 10° NE
USA 186 4.0 18:41:45 15° NNE 18:43:31 24° ENE 18:46:10 10° SE
Cosmos 1238 Rocket 4.2 18:39:29 10° ENE 18:45:04 42° N 18:46:01 39° NNW
Cosmos 1459 Rocket 4.2 18:49:29 43° W 18:50:15 45° WSW 18:56:01 10° S
Cosmos 2218 Rocket 4.2 18:45:09 10° N 18:51:13 46° WNW 18:57:15 10° SW
IDEFIX/ARIANE 42P 3.8 18:49:09 10° ESE 18:53:53 34° SSE 18:56:53 19° SW
Cosmos 1655 Rocket 4.5 18:48:04 10° ENE 18:54:03 46° N 18:55:38 39° NW
Cosmos 1726 3.7 18:51:17 10° E 18:54:16 25° NE 18:55:00 23° NNE
YAOGAN 1 4.4 18:51:10 10° NNE 18:55:03 31° E 18:58:56 10° SE
Cosmos 1975 Rocket 4.2 18:57:26 29° SSW 18:58:19 32° S 19:02:14 10° SE
Cosmos 2173 Rocket 4.3 18:57:46 42° W 18:58:54 47° WSW 19:04:57 10° S
Helios 1B rocket 4.4 18:57:12 10° E 19:00:45 27° SE 19:04:17 10° SSW
ADEOS Rocket 4.2 18:58:22 24° NNW 19:02:47 46° NNE 19:09:54 10° ESE
Cosmos 2266 Rocket 4.4 18:57:52 10° ENE 19:03:36 45° N 19:05:01 39° NW
Cosmos 1953 3.6 19:01:22 10° ENE 19:04:53 29° NNE 19:04:54 29° NNE
Cosmos 2082 Rocket 4.4 19:03:19 10° N 19:04:13 11° N 19:04:13 11° N
CZ-2C R/B 3.9 19:03:36 10° E 19:07:48 32° SSE 19:12:06 10° SSW
Okean 2 Rocket 4.1 19:07:24 10° ENE 19:11:21 32° NNE 19:11:44 32° N
Cosmos 1626 3.8 19:14:22 23° SSW 19:14:22 23° SSW 19:16:26 10° SSE
Cosmos 1605 Rocket 4.3 19:12:28 43° WNW 19:13:30 47° W 19:19:31 10° SSW
Meteor 2-10 Rocket 4.5 19:09:37 10° ENE 19:14:04 32° NNE 19:14:57 30° N
Cosmos 1892 4.4 19:14:27 22° SSW 19:15:39 27° S 19:18:53 10° ESE
Cosmos 1408 4.2 19:15:16 23° SSW 19:16:04 26° S 19:19:06 10° ESE
Cosmos 1633 4.4 19:18:46 20° SSW 19:20:02 25° SSE 19:22:57 10° ESE
Cosmos 2228 Rocket 4.3 19:21:35 29° SW 19:21:35 29° SW 19:24:33 10° S
Cosmos 1470 4.2 19:17:55 10° E 19:21:20 28° NE 19:21:57 27° NNE
H-2A R/B 4.3 19:19:59 15° N 19:22:59 30° ENE 19:26:56 10° SE
ARIANE 5 R/B 4.1 19:18:30 10° E 19:23:10 33° SE 19:27:53 10° SSW
Cosmos 1745 Rocket 4.3 19:17:54 10° NE 19:23:45 46° NNW 19:24:43 42° NW
Cosmos 1674 4.3 19:26:20 24° SSW 19:26:20 24° SSW 19:28:37 10° SSE
Resurs 1-4 Rocket 3.3 19:22:32 10° ESE 19:27:25 34° S 19:30:07 22° SW
Okean 1 Rocket 4.1 19:23:58 10° ENE 19:27:51 32° NNE 19:27:55 32° N
ARIANE 5 R/B 4.0 19:26:35 25° N 19:27:57 30° NE 19:31:53 10° ESE
Cosmos 1300 4.1 19:25:15 10° ENE 19:28:13 27° NNE 19:28:13 27° NNE
Cosmos 1025 Rocket 4.2 19:27:44 29° SW 19:28:36 32° SSW 19:32:28 10° SE
IRIDIUM 104 4.5 19:23:49 10° E 19:28:58 60° N 19:30:01 50° NW
Cosmos 2341 Rocket 4.2 19:27:11 10° NNE 19:33:08 46° WNW 19:39:03 10° SW
Cosmos 2228 4.3 19:31:18 10° NE 19:34:08 28° NNE 19:34:08 28° NNE
Cosmos 2100 Rocket 4.3 19:34:21 43° WNW 19:35:25 46° WSW 19:41:24 10° S
Resurs 01 Rocket 3.2 19:33:06 15° NNE 19:36:08 31° ENE 19:40:07 10° SE
Cosmos 2074 Rocket 4.2 19:30:58 10° NNE 19:36:53 46° NW 19:37:38 44° WNW
Meteor 2-4 Rocket 4.4 19:37:57 36° WSW 19:37:57 36° WSW 19:42:58 10° SSW
IRIDIUM 114 4.5 19:32:56 10° E 19:38:06 60° N 19:39:08 50° NW
ADEOS II 3.4 19:33:17 10° ESE 19:38:06 34° S 19:41:15 19° SW
CZ-2C R/B 4.5 19:33:54 10° E 19:38:14 33° SE 19:42:36 10° SSW
Cosmos 2061 Rocket 4.4 19:38:08 41° W 19:39:27 47° WSW 19:45:32 10° S
CZ-2C R/B 3.7 19:41:19 29° N 19:41:19 29° N 19:44:27 10° NNE
Cosmos 2278 Rocket 4.3 19:39:52 11° SW 19:40:19 11° SW 19:41:57 10° SSW
Ariane Rocket 4.4 19:38:53 17° N 19:42:12 33° ENE 19:46:47 10° SE
CZ-2D R/B 3.4 19:38:36 10° ESE 19:43:24 34° S 19:46:07 21° SW
ERS-2 3.9 19:42:09 10° SE 19:45:03 22° SSW 19:45:34 22° SSW
IRIDIUM 103 4.5 19:42:03 10° E 19:47:13 60° NNE 19:48:15 50° NW
Aureole 3 Rocket 4.2 19:47:57 21° SSW 19:47:57 21° SSW 19:50:03 10° SSE
Terra 3.2 19:45:57 23° N 19:48:05 33° NE 19:52:22 10° ESE
Cosmos 1825 4.0 19:47:31 21° SSW 19:48:53 26° S 19:52:01 10° ESE
Cosmos 1455 3.8 19:46:01 10° ENE 19:48:22 24° NNE 19:48:22 24° NNE
Cosmos 1709 Rocket 4.3 19:45:09 10° NE 19:51:06 46° NNW 19:52:05 43° NW
GP-B 3.0 19:50:30 67° WNW 19:51:06 88° SSW 19:55:35 10° ESE
SPOT 5 4.3 19:49:18 20° N 19:52:11 35° ENE 19:57:03 10° SE
ASTEX 1 3.3 19:51:28 56° WNW 19:52:13 65° NNW 19:57:08 10° ENE
CZ-4 R/B 3.3 19:50:27 10° NNE 19:53:53 28° E 19:57:24 10° SSE
Cosmos 1725 Rocket 4.3 19:54:32 42° W 19:55:33 46° WSW 20:01:26 10° S
Cosmos 2034 Rocket 4.5 19:54:10 37° W 19:55:48 45° SW 20:01:38 10° SSE
ERS-1 Rocket 4.3 19:54:27 21° N 19:57:02 34° ENE 20:01:37 10° ESE
H-2A R/B 3.5 19:54:24 10° SSW 19:57:02 25° SW 19:57:02 25° SW
Okean-O 4.4 19:57:18 10° NNE 20:01:16 30° E 20:05:14 10° SSE
Cosmos 2016 Rocket 4.2 20:00:45 42° WNW 20:01:42 45° WSW 20:07:32 10° S
Cosmos 1943 Rocket 4.4 20:00:34 10° SW 20:01:55 11° SW 20:03:17 10° SSW
Cosmos 1455 Rocket 4.1 19:58:26 10° ENE 20:02:04 32° NNE 20:02:04 32° NNE
Cosmos 2154 Rocket 4.2 19:58:56 10° NNE 20:04:48 45° NW 20:05:26 44° NW
IRIDIUM 106 4.5 20:00:22 10° E 20:05:32 60° NNE 20:06:34 50° NNW
Cosmos 2184 Rocket 4.2 19:59:43 10° NE 20:05:36 46° NW 20:06:19 44° NW
MOS 1 Rocket 4.1 20:05:59 35° N 20:06:02 35° N 20:10:15 10° ENE
Cosmos 1802 Rocket 4.3 20:05:15 42° WNW 20:06:21 46° W 20:12:23 10° S
ALOS 3.8 20:03:15 10° ESE 20:07:29 33° SSE 20:11:18 12° SW
SL-8 Rocket 4.1 20:02:56 10° NNE 20:08:48 46° NW 20:14:37 10° WSW
Cosmos 2233 Rocket 4.3 20:09:48 41° WNW 20:10:56 46° WSW 20:16:49 10° S
Cosmos 1464 Rocket 4.5 20:09:19 38° W 20:11:01 47° WSW 20:17:04 10° SSE
Cosmos 1707 4.3 20:12:47 25° SW 20:12:47 25° SW 20:15:14 10° S
Helios 1A Rocket 4.4 20:11:29 24° NNE 20:12:23 27° NE 20:15:51 10° ESE
ALOS 2 3.7 20:12:00 30° NNE 20:12:33 31° NNE 20:16:30 10° E
Cosmos 1733 Rocket 4.5 20:10:08 10° SE 20:13:58 32° ENE 20:15:35 24° NNE
Okean O Rocket 3.5 20:11:11 10° NE 20:15:05 30° E 20:18:58 10° SSE
Okean 1-7 4.1 20:16:01 31° SW 20:16:01 31° SW 20:19:27 10° S
USA 186 4.0 20:14:50 15° NE 20:16:36 24° E 20:19:16 10° SSE
Cosmos 1271 Rocket 4.4 20:13:55 10° E 20:16:54 22° NE 20:16:55 22° NE
SJ 16-02 4.4 20:18:35 10° ESE 20:20:20 12° E 20:22:06 10° ENE
Cosmos 1821 Rocket 4.1 20:19:59 44° NW 20:20:28 45° WNW 20:26:15 10° SW
Cosmos 2366 rocket 4.2 20:15:43 10° NNE 20:21:45 46° NW 20:27:47 10° WSW
H-2A R/B 3.6 20:17:53 10° ENE 20:22:26 34° SE 20:26:56 10° SSW
Cosmos 1238 Rocket 4.2 20:17:49 10° E 20:23:24 42° NNE 20:24:20 39° N
SL-16 R/B 3.1 20:26:05 36° NNW 20:26:39 36° N 20:32:22 10° ENE
Cosmos 1934 Rocket 4.2 20:26:21 44° NW 20:26:57 46° WNW 20:32:50 10° SW
Cosmos 1726 3.7 20:25:22 10° ESE 20:28:22 25° ENE 20:29:07 23° NE
YAOGAN 1 4.4 20:28:17 10° NE 20:32:10 31° ESE 20:36:04 10° S
IDEFIX/ARIANE 42P 3.8 20:29:56 10° SE 20:34:41 34° SSW 20:37:40 20° WSW
Cosmos 1459 Rocket 4.2 20:34:00 43° WNW 20:34:45 45° W 20:40:31 10° SSW
Cosmos 1975 Rocket 4.2 20:34:33 29° SW 20:35:25 32° SSW 20:39:21 10° SSE
Cosmos 2218 Rocket 4.2 20:29:55 10° NNE 20:36:00 46° NW 20:42:02 10° WSW
Helios 1B rocket 4.4 20:33:19 10° ESE 20:36:52 27° SSE 20:40:25 10° SW
Cosmos 1655 Rocket 4.5 20:32:59 10° E 20:38:59 46° NNE 20:40:34 39° NNW
Cosmos 1953 3.6 20:36:55 10° E 20:40:25 29° NE 20:40:27 29° NE
Cosmos 2173 Rocket 4.3 20:42:22 42° WNW 20:43:30 47° W 20:49:32 10° SSW
Cosmos 2082 Rocket 4.4 20:45:08 10° NNE 20:46:04 11° NNE 20:46:04 11° NNE
CZ-2C R/B 3.9 20:42:58 10° ESE 20:47:10 32° S 20:51:28 10° WSW
Cosmos 1626 3.8 20:48:34 23° SW 20:48:34 23° SW 20:50:38 10° S
Cosmos 2266 Rocket 4.4 20:42:25 10° E 20:48:09 45° NNE 20:49:35 39° NNW
Okean 2 Rocket 4.1 20:44:44 10° ESE 20:48:40 32° NE 20:49:04 32° NNE
ADEOS Rocket 4.2 20:45:19 24° N 20:49:44 46° ENE 20:56:50 10° SE
Cosmos 1408 4.2 20:49:07 23° SW 20:49:55 26° SSW 20:52:56 10° SE
Cosmos 1892 4.4 20:49:12 23° SW 20:50:24 27° SSW 20:53:38 10° SE
Cosmos 1633 4.4 20:52:21 20° SW 20:53:36 25° S 20:56:31 10° SE
Cosmos 1470 4.2 20:53:06 10° ESE 20:56:32 28° ENE 20:57:08 27° NE
Cosmos 2228 Rocket 4.3 20:59:03 29° WSW 20:59:03 29° WSW 21:02:01 10° SSW
Cosmos 1605 Rocket 4.3 20:57:08 43° NW 20:58:09 47° WNW 21:04:10 10° SW
H-2A R/B 4.3 20:56:25 15° NNE 20:59:25 30° E 21:03:22 10° SSE
Cosmos 1674 4.3 21:00:54 24° SW 21:00:54 24° SW 21:03:10 10° SSW
Cosmos 1300 4.1 21:00:01 10° E 21:02:59 27° NE 21:02:59 27° NE
ARIANE 5 R/B 4.1 20:58:50 10° ESE 21:03:29 33° S 21:08:12 10° SW
Okean 1 Rocket 4.1 21:01:08 10° E 21:05:00 32° NE 21:05:05 32° NE
Cosmos 1025 Rocket 4.2 21:04:36 29° WSW 21:05:27 32° SW 21:09:20 10° SSE
ARIANE 5 R/B 4.0 21:04:07 25° NNE 21:05:29 30° ENE 21:09:25 10° SE
Cosmos 1745 Rocket 4.3 21:02:32 10° ENE 21:08:23 46° N 21:09:22 42° NNW
Resurs 1-4 Rocket 3.3 21:03:36 10° SE 21:08:29 34° SSW 21:11:11 22° WSW
IRIDIUM 104 4.5 21:04:18 10° ESE 21:09:27 60° NNE 21:10:29 50° NNW
Cosmos 2228 4.3 21:08:03 10° ENE 21:10:53 28° NE 21:10:53 28° NE
Resurs 01 Rocket 3.2 21:10:38 15° NE 21:13:41 31° E 21:17:39 10° SSE
Cosmos 2341 Rocket 4.2 21:12:04 10° NE 21:18:01 46° NNW 21:23:56 10° WSW
IRIDIUM 114 4.5 21:13:24 10° ESE 21:18:34 60° NE 21:19:36 50° NNW
ADEOS II 3.4 21:14:12 10° SE 21:19:02 34° SSW 21:22:10 19° WSW
ERS-2 3.9 21:16:23 10° SSE 21:19:16 22° SW 21:19:47 22° SW
CZ-2C R/B 4.5 21:14:57 10° ESE 21:19:17 33° S 21:23:38 10° SW
Meteor 2-4 Rocket 4.4 21:20:01 36° W 21:20:01 36° W 21:25:02 10° SW
Cosmos 2100 Rocket 4.3 21:19:04 43° NW 21:20:08 46° WNW 21:26:07 10° SSW
CZ-2C R/B 3.7 21:22:50 29° NNE 21:22:50 29° NNE 21:25:57 10° NE
Cosmos 2074 Rocket 4.2 21:15:39 10° NE 21:21:34 46° NNW 21:22:18 44° NW
Cosmos 2278 Rocket 4.3 21:21:43 11° WSW 21:22:08 11° WSW 21:23:47 10° SW
Ariane Rocket 4.4 21:19:04 17° NNE 21:22:23 33° E 21:26:58 10° SSE
Cosmos 1825 4.0 21:22:02 21° SW 21:23:23 26° SSW 21:26:32 10° SE
Cosmos 1455 3.8 21:20:40 10° E 21:23:02 24° NE 21:23:02 24° NE
Cosmos 2061 Rocket 4.4 21:23:05 41° NW 21:24:24 47° W 21:30:28 10° SSW
CZ-2D R/B 3.4 21:19:54 10° SE 21:24:43 34° SSW 21:27:26 21° W
Terra 3.2 21:24:43 23° NE 21:26:50 33° ENE 21:31:08 10° SE
IRIDIUM 103 4.5 21:22:31 10° ESE 21:27:41 60° NE 21:28:43 50° N
GP-B 3.0 21:27:55 67° NW 21:28:31 88° SW 21:33:00 10° SE
CZ-4 R/B 3.3 21:26:22 10° ENE 21:29:48 28° ESE 21:33:18 10° S
SPOT 5 4.3 21:28:31 20° NNE 21:31:23 35° E 21:36:16 10° SSE
ASTEX 1 3.3 21:30:57 57° NW 21:31:42 65° N 21:36:36 10° E
Aureole 3 Rocket 4.2 21:34:31 21° SW 21:34:31 21° SW 21:36:37 10° S
H-2A R/B 3.5 21:31:26 10° SW 21:34:03 25° WSW 21:34:03 25° WSW
Cosmos 1709 Rocket 4.3 21:29:47 10° ENE 21:35:44 46° N 21:36:44 43° NNW
ERS-1 Rocket 4.3 21:34:25 21° NE 21:37:01 34° E 21:41:36 10° SSE
Okean-O 4.4 21:34:51 10° NE 21:38:49 30° ESE 21:42:47 10° S
Cosmos 1455 Rocket 4.1 21:35:31 10° E 21:39:09 32° NE 21:39:09 32° NE
Cosmos 1725 Rocket 4.3 21:39:12 42° NW 21:40:13 46° W 21:46:06 10° SSW
Cosmos 2034 Rocket 4.5 21:38:54 37° WNW 21:40:32 45° WSW 21:46:22 10° S
Cosmos 1943 Rocket 4.4 21:42:04 10° WSW 21:43:25 11° WSW 21:44:46 10° SW
MOS 1 Rocket 4.1 21:45:15 35° NNE 21:45:18 35° NE 21:49:31 10° E
ALOS 3.8 21:41:43 10° SE 21:45:57 33° SSW 21:49:45 12° WSW
IRIDIUM 106 4.5 21:40:51 10° ESE 21:46:00 60° NE 21:47:02 50° N
Cosmos 2016 Rocket 4.2 21:45:22 42° NW 21:46:19 45° WNW 21:52:08 10° SSW
Cosmos 1707 4.3 21:47:45 25° WSW 21:47:45 25° WSW 21:50:12 10° SSW
Helios 1A Rocket 4.4 21:47:32 24° NE 21:48:27 27° ENE 21:51:54 10° SE
Cosmos 2154 Rocket 4.2 21:43:43 10° ENE 21:49:35 45° NNW 21:50:12 44° NNW
USA 186 4.0 21:47:56 15° ENE 21:49:42 24° ESE 21:52:21 10° S
ALOS 2 3.7 21:49:24 30° NE 21:49:57 31° ENE 21:53:54 10° ESE
Cosmos 2184 Rocket 4.2 21:44:29 10° ENE 21:50:21 46° N 21:51:05 44° NNW
Cosmos 1733 Rocket 4.5 21:47:11 10° SSE 21:51:02 32° E 21:52:39 24° NE
Cosmos 1802 Rocket 4.3 21:50:04 42° NW 21:51:10 46° WNW 21:57:11 10° SW
Cosmos 1271 Rocket 4.4 21:48:54 10° ESE 21:51:52 22° ENE 21:51:54 22° ENE
Okean 1-7 4.1 21:52:49 31° WSW 21:52:49 31° WSW 21:56:14 10° SSW
Okean O Rocket 3.5 21:48:37 10° ENE 21:52:30 30° ESE 21:56:23 10° S
SL-8 Rocket 4.1 21:47:33 10° NE 21:53:25 46° NNW 21:59:15 10° W
Cosmos 2233 Rocket 4.3 21:54:23 41° NW 21:55:31 46° W 22:01:24 10° SSW
Cosmos 1464 Rocket 4.5 21:54:01 38° WNW 21:55:41 47° W 22:01:45 10° SSW
SJ 16-02 4.4 21:55:29 10° SE 21:57:14 12° ESE 21:59:00 10° E
Cosmos 1238 Rocket 4.2 21:56:09 10° ESE 22:01:43 42° NE 22:02:40 39° NNE
Cosmos 1726 3.7 21:59:28 10° SE 22:02:29 25° E 22:03:13 23° ENE
H-2A R/B 3.6 21:58:30 10° E 22:03:03 34° SSE 22:07:33 10° SW
Cosmos 1821 Rocket 4.1 22:04:39 44° NNW 22:05:06 45° NW 22:10:53 10° WSW
Cosmos 2366 rocket 4.2 22:00:23 10° NE 22:06:25 46° NNW 22:12:27 10° W
YAOGAN 1 4.4 22:05:25 10° ENE 22:09:18 31° SE 22:13:10 10° SSW
Cosmos 1934 Rocket 4.2 22:10:52 44° NNW 22:11:27 46° NW 22:17:20 10° WSW
SL-16 R/B 3.1 22:11:11 36° N 22:11:44 36° NNE 22:17:27 10° E
Cosmos 1975 Rocket 4.2 22:11:41 29° W 22:12:32 32° WSW 22:16:28 10° S
Helios 1B rocket 4.4 22:09:27 10° SE 22:13:00 27° S 22:16:33 10° WSW
IDEFIX/ARIANE 42P 3.8 22:10:44 10° SSE 22:15:29 34° SW 22:18:27 20° W
Cosmos 1953 3.6 22:12:26 10° ESE 22:15:58 29° ENE 22:16:00 29° ENE
Cosmos 1459 Rocket 4.2 22:18:29 43° NW 22:19:15 45° WNW 22:25:01 10° SW
Cosmos 2218 Rocket 4.2 22:14:41 10° NE 22:20:46 46° NNW 22:26:48 10° W
Cosmos 1626 3.8 22:22:47 22° WSW 22:22:47 22° WSW 22:24:50 10° SW
Cosmos 1408 4.2 22:22:57 24° WSW 22:23:45 26° SW 22:26:46 10° SSE
Cosmos 1655 Rocket 4.5 22:17:55 10° ESE 22:23:54 46° NE 22:25:30 39° N
Cosmos 1892 4.4 22:23:57 23° WSW 22:25:09 27° SW 22:28:22 10° SSE
Okean 2 Rocket 4.1 22:22:05 10° SE 22:26:00 32° ENE 22:26:25 32° NE
CZ-2C R/B 3.9 22:22:19 10° SE 22:26:32 32° SSW 22:30:50 10° W
Cosmos 1633 4.4 22:25:55 20° WSW 22:27:10 25° SSW 22:30:05 10° SSE
Cosmos 2173 Rocket 4.3 22:26:58 42° NNW 22:28:05 47° WNW 22:34:08 10° SW
Cosmos 2082 Rocket 4.4 22:26:57 10° ENE 22:27:54 11° NE 22:27:54 11° NE
Cosmos 1470 4.2 22:28:17 10° SE 22:31:42 28° E 22:32:20 27° ENE
Cosmos 2266 Rocket 4.4 22:26:59 10° ESE 22:32:43 45° NE 22:34:09 39° NNE
Cosmos 1674 4.3 22:35:27 24° WSW 22:35:27 24° WSW 22:37:44 10° SW
Cosmos 2228 Rocket 4.3 22:36:31 29° W 22:36:31 29° W 22:39:29 10° WSW
H-2A R/B 4.3 22:32:51 15° ENE 22:35:50 30° ESE 22:39:48 10° S
ADEOS Rocket 4.2 22:32:16 24° NNE 22:36:41 46° E 22:43:46 10° SSE
Cosmos 1300 4.1 22:34:46 10° SE 22:37:44 27° ENE 22:37:44 27° ENE
Okean 1 Rocket 4.1 22:38:17 10° ESE 22:42:10 32° ENE 22:42:14 32° ENE
Cosmos 1025 Rocket 4.2 22:41:28 29° W 22:42:18 32° WSW 22:46:11 10° S
Cosmos 1605 Rocket 4.3 22:41:47 43° NNW 22:42:48 47° NW 22:48:48 10° WSW
ARIANE 5 R/B 4.0 22:41:39 25° ENE 22:43:01 30° E 22:46:57 10° SSE
ARIANE 5 R/B 4.1 22:39:09 10° SE 22:43:49 33° SSW 22:48:32 10° W
Cosmos 2228 4.3 22:44:49 10° E 22:47:39 28° ENE 22:47:39 28° ENE
Resurs 1-4 Rocket 3.3 22:44:41 10° SSE 22:49:34 34° SW 22:52:16 22° WNW
IRIDIUM 104 4.5 22:44:45 10° SE 22:49:55 60° ENE 22:50:57 50° NNE
Resurs 01 Rocket 3.2 22:48:11 15° ENE 22:51:13 31° ESE 22:55:12 10° S
Cosmos 1745 Rocket 4.3 22:47:12 10° E 22:53:03 46° NNE 22:54:01 42° N
ERS-2 3.9 22:50:36 10° S 22:53:29 22° WSW 22:54:00 22° WSW
Cosmos 1825 4.0 22:56:34 21° WSW 22:57:55 26° SW 23:01:04 10° SSE
Cosmos 1455 3.8 22:55:19 10° ESE 22:57:41 24° ENE 22:57:41 24° ENE
CZ-2C R/B 2.5 22:53:17 10° SSE 22:58:48 60° ENE 22:58:56 59° ENE
IRIDIUM 114 4.5 22:53:52 10° SE 22:59:01 60° ENE 23:00:04 50° NNE
ADEOS II 3.4 22:55:08 10° SSE 22:59:56 34° SW 23:03:04 19° WNW
CZ-2C R/B 4.5 22:56:00 10° SE 23:00:19 33° SSW 23:04:41 10° W
Meteor 2-4 Rocket 4.4 23:02:05 36° NW 23:02:05 36° NW 23:07:06 10° WSW
CZ-2C R/B 3.7 23:04:20 29° NE 23:04:20 29° NE 23:07:27 10° ENE
Ariane Rocket 4.4 22:59:15 17° ENE 23:02:34 33° ESE 23:07:09 10° S
Cosmos 2341 Rocket 4.2 22:56:57 10° ENE 23:02:54 46° N 23:08:48 10° WNW
Cosmos 2278 Rocket 4.3 23:03:33 11° W 23:03:57 11° W 23:05:36 10° WSW
Cosmos 2100 Rocket 4.3 23:03:48 43° NNW 23:04:51 46° NW 23:10:50 10° WSW
Terra 3.2 23:03:29 23° ENE 23:05:36 33° ESE 23:09:54 10° SSE
CZ-4 R/B 3.3 23:02:16 10° E 23:05:42 28° SE 23:09:13 10° SSW
GP-B 3.0 23:05:20 67° NNW 23:05:55 88° WSW 23:10:24 10° SSE
CZ-2D R/B 3.4 23:01:13 10° S 23:06:01 34° WSW 23:08:44 21° WNW
Cosmos 2074 Rocket 4.2 23:00:19 10° E 23:06:15 46° N 23:06:59 44° N
IRIDIUM 103 4.5 23:02:59 10° SE 23:08:09 60° ENE 23:09:11 50° NNE
Cosmos 2061 Rocket 4.4 23:08:03 41° NNW 23:09:21 47° WNW 23:15:25 10° SW
SPOT 5 4.3 23:07:43 20° ENE 23:10:36 35° ESE 23:15:28 10° S
ASTEX 1 3.3 23:10:26 57° NNW 23:11:11 65° NNE 23:16:06 10° ESE
H-2A R/B 3.5 23:08:27 10° WSW 23:11:04 25° W 23:11:04 25° W
Okean-O 4.4 23:12:24 10° ENE 23:16:22 30° SE 23:20:20 10° SSW
Cosmos 1455 Rocket 4.1 23:12:36 10° ESE 23:16:14 32° ENE 23:16:14 32° ENE
ERS-1 Rocket 4.3 23:14:24 21° ENE 23:16:59 34° ESE 23:21:34 10° S
Cosmos 1709 Rocket 4.3 23:14:26 10° E 23:20:22 46° NNE 23:21:22 43° N
Aureole 3 Rocket 4.2 23:21:05 21° WSW 23:21:05 21° WSW 23:23:12 10° SSW
Cosmos 1707 4.3 23:22:43 25° W 23:22:43 25° W 23:25:09 10° SW
USA 186 4.0 23:21:01 15° E 23:22:47 24° SE 23:25:26 10° SSW
ALOS 3.8 23:20:10 10° SSE 23:24:24 33° SW 23:28:12 12° W
Helios 1A Rocket 4.4 23:23:37 24° ENE 23:24:31 27° E 23:27:58 10° SSE
MOS 1 Rocket 4.1 23:24:32 35° ENE 23:24:35 35° ENE 23:28:47 10° SE
Cosmos 1725 Rocket 4.3 23:23:52 42° NNW 23:24:53 46° NW 23:30:46 10° WSW
Cosmos 1943 Rocket 4.4 23:23:33 10° W 23:24:54 11° W 23:26:16 10° WSW
Cosmos 2034 Rocket 4.5 23:23:39 38° NW 23:25:16 45° W 23:31:06 10° SSW
IRIDIUM 106 4.5 23:21:18 10° SE 23:26:28 60° ENE 23:27:30 50° NNE
Cosmos 1271 Rocket 4.4 23:23:53 10° SE 23:26:52 22° E 23:26:53 22° E
ALOS 2 3.7 23:26:47 30° ENE 23:27:20 31° E 23:31:17 10° SE
Cosmos 1733 Rocket 4.5 23:24:15 10° S 23:28:06 32° ESE 23:29:42 24° ENE
Okean 1-7 4.1 23:29:36 31° W 23:29:36 31° W 23:33:00 10° SW
Okean O Rocket 3.5 23:26:02 10° E 23:29:56 30° SSE 23:33:49 10° SSW
Cosmos 2016 Rocket 4.2 23:30:00 42° NNW 23:30:55 45° NW 23:36:45 10° WSW
SJ 16-02 4.4 23:32:23 10° S 23:34:08 12° SSE 23:35:53 10° ESE
Cosmos 2154 Rocket 4.2 23:28:29 10° E 23:34:22 45° NNE 23:34:57 44° N
Cosmos 2184 Rocket 4.2 23:29:14 10° E 23:35:07 46° NNE 23:35:50 44° N
Cosmos 1802 Rocket 4.3 23:34:53 42° NNW 23:35:59 46° NW 23:42:01 10° WSW
Cosmos 1726 3.8 23:33:35 10° S 23:36:34 25° ESE 23:37:19 23° E
SL-8 Rocket 4.1 23:32:10 10° ENE 23:38:02 46° N 23:43:52 10° WNW
Cosmos 1238 Rocket 4.2 23:34:28 10° SE 23:40:02 42° ENE 23:40:59 39° NE
Cosmos 2233 Rocket 4.3 23:38:57 41° NNW 23:40:06 46° NW 23:45:58 10° SW
Cosmos 1464 Rocket 4.5 23:38:42 38° NNW 23:40:22 47° WNW 23:46:26 10° SW
H-2A R/B 3.6 23:39:07 10° ESE 23:43:39 34° S 23:48:09 10° WSW
YAOGAN 1 4.4 23:42:32 10° E 23:46:24 31° SSE 23:50:17 10° SW
Helios 1B rocket 4.4 23:45:35 10° SSE 23:49:08 27° SSW 23:52:41 10° W
Cosmos 1975 Rocket 4.2 23:48:49 29° WNW 23:49:41 32° W 23:53:35 10° SSW
Cosmos 1821 Rocket 4.1 23:49:18 44° N 23:49:45 45° N 23:55:31 10° WNW
Cosmos 2366 rocket 4.2 23:45:03 10° ENE 23:51:05 46° N 23:57:07 10° WNW
Cosmos 1953 3.6 23:47:59 10° SE 23:51:30 29° E 23:51:32 29° E
Cosmos 1626 3.8 23:57:00 22° W 23:57:00 22° W 23:59:02 10° WSW
